TimeAST,TemperatureF,Dew PointF,Humidity,Sea Level PressureIn,VisibilityMPH,Wind Direction,Wind SpeedMPH,Gust SpeedMPH,PrecipitationIn,Events,Conditions,WindDirDegrees,DateUTC
12:00 AM,78.8,71.6,78,30.01,6.2,East,10.4,-,N/A,Rain,Light Rain Showers,90,2013-05-22 04:00:00
1:00 AM,78.8,71.6,78,29.98,6.2,East,6.9,-,N/A,,Scattered Clouds,90,2013-05-22 05:00:00
2:00 AM,79,72,72,29.97,16,East,10.4,,,,Partly Cloudy,90,2013-05-22 06:00:00
2:00 AM,78.8,71.6,78,29.95,6.2,East,10.4,-,N/A,,Scattered Clouds,90,2013-05-22 06:00:00
3:00 AM,78.8,71.6,78,29.95,6.2,East,11.5,-,N/A,,Scattered Clouds,90,2013-05-22 07:00:00
4:00 AM,78.8,71.6,78,29.95,6.2,East,11.5,-,N/A,,Scattered Clouds,80,2013-05-22 08:00:00
5:00 AM,80,70,65,29.97,9,East,12.7,,,,Mostly Cloudy,90,2013-05-22 09:00:00
5:00 AM,78.8,69.8,74,29.95,6.2,East,12.7,-,N/A,,Mostly Cloudy,90,2013-05-22 09:00:00
6:00 AM,80.6,69.8,70,29.98,6.2,East,11.5,-,N/A,,Mostly Cloudy,90,2013-05-22 10:00:00
7:00 AM,77.0,71.6,83,30.01,6.2,East,15.0,-,N/A,Rain,Light Rain Showers,90,2013-05-22 11:00:00
8:00 AM,80,73,73,30.02,12,ENE,15.0,,,Rain,Light Rain Showers,70,2013-05-22 12:00:00
8:00 AM,80.6,71.6,74,30.01,6.2,ENE,15.0,-,N/A,,Scattered Clouds,70,2013-05-22 12:00:00
9:00 AM,80.6,71.6,74,30.01,6.2,East,10.4,-,N/A,,Scattered Clouds,90,2013-05-22 13:00:00
10:00 AM,84.2,71.6,66,30.04,6.2,East,11.5,-,N/A,,Scattered Clouds,90,2013-05-22 14:00:00
11:00 AM,83,70,57,30.03,12,East,15.0,,,,Partly Cloudy,90,2013-05-22 15:00:00
11:00 AM,84.2,69.8,62,30.01,6.2,East,15.0,-,N/A,,Scattered Clouds,90,2013-05-22 15:00:00
12:00 PM,84.2,69.8,62,30.01,6.2,East,17.3,-,N/A,,Scattered Clouds,80,2013-05-22 16:00:00
1:00 PM,84.2,71.6,66,30.01,6.2,East,15.0,-,N/A,,Scattered Clouds,80,2013-05-22 17:00:00
2:00 PM,84,71,56,30.01,19,East,11.5,,,,Mostly Cloudy,90,2013-05-22 18:00:00
2:00 PM,84.2,71.6,66,30.01,6.2,East,11.5,-,N/A,,Scattered Clouds,90,2013-05-22 18:00:00
3:00 PM,82.4,69.8,66,29.98,6.2,East,12.7,-,N/A,,Scattered Clouds,100,2013-05-22 19:00:00
4:00 PM,82.4,68.0,62,29.98,6.2,East,17.3,-,N/A,,Scattered Clouds,100,2013-05-22 20:00:00
5:00 PM,81,69,60,29.99,16,East,15.0,,,,Mostly Cloudy,80,2013-05-22 21:00:00
5:00 PM,80.6,69.8,70,29.98,6.2,East,15.0,26.5,N/A,,Mostly Cloudy,80,2013-05-22 21:00:00
6:00 PM,80.6,69.8,70,30.01,6.2,East,16.1,-,N/A,,Mostly Cloudy,100,2013-05-22 22:00:00
7:00 PM,80.6,68.0,65,30.01,6.2,East,16.1,-,N/A,,Scattered Clouds,90,2013-05-22 23:00:00
8:00 PM,80,69,62,30.04,16,East,17.3,,,,Mostly Cloudy,100,2013-05-23 00:00:00
8:00 PM,80.6,69.8,70,30.04,6.2,East,17.3,-,N/A,,Scattered Clouds,100,2013-05-23 00:00:00
9:00 PM,80.6,69.8,70,30.04,6.2,East,13.8,-,N/A,,Scattered Clouds,80,2013-05-23 01:00:00
10:00 PM,80.6,69.8,70,30.06,6.2,East,17.3,-,N/A,,Scattered Clouds,90,2013-05-23 02:00:00
11:00 PM,80,70,64,30.07,16,East,13.8,,,,Mostly Cloudy,90,2013-05-23 03:00:00
11:00 PM,80.6,69.8,70,30.06,6.2,East,13.8,-,N/A,,Scattered Clouds,90,2013-05-23 03:00:00